loading
|
Showing default

GGSE 5, 2834

Orbit data source: Space-Track

GGSE 5, 2834 is an American payload satellite in LEO that was launched on Wed, 31 May 1967 UTC via a THOR SLV-2 AGENA D launch vehicle from the Air Force Western Test Range (AFWTR). Payloads include a variety of satellites, spacecraft, and rockets equipped with specific instruments for various scientific and technological missions. These include communications satellites like Starlink; space stations such as the ISS; scientific satellites like the Hubble; Earth observation satellites from companies like Planet Labs, Umbra, and HawkEye 360; GPS; miniature CubeSats for education and research; and military/defense satellites.

Loading next visibility...
Loading greatness...
GGSE 5 details
Identifier
2834, 1967-053D
Orbit
LEO
Last TLE update11 hours ago
Origin
Flag of USNRO/NRL (US)
ManufacturerNRL
MissionDefense Technology
Bus & MotorNRL MULTI, Unknown motor
Mass105 kg wet, 105 kg dry
Launch date (UTC)
1967-05-31 (57 years ago)
Launch vehicle
THOR SLV-2 AGENA D
Launch site
Air Force Western Test Range (AFWTR)
Object type
Payload
Rocket body
Debris
Shape & HBREll + 2 Ant, 18 m
Radar Cross Section1.247 m², Medium (>0.1 m² and < 1m²)

Expand to show TLE details & history

TLE from 11 hours ago
0 GGSE 5
1 02834U 67053D   24284.52875204  .00000266  00000-0  23269-3 0  9990
2 02834  69.9756   9.0715 0010329 282.4944  77.5005 13.96053842920344
Epoch: 2024-10-10T12:41Z
Definitive object data (Epoch: 2024-10-10T12:41:24.176Z)
Latitude-0.00008°
Longitude159.10874°
Altitude908.181 km
Speed7.399 km/s
True Right ascension00h 36m 17s
True Declination0° 00' 00"
Sunlit
Object was in full shadow at TLE epoch
Predictive object data (real-time)
Latitude51.23546°
Longitude-48.7031°
Altitude922.09 km
Speed7.392 km/s
Apparent Right ascension08h 14m 45s
Apparent Declination11° 47' 34"
Sunlit
Object is in daylight
Predictive observer data (real-time)
Local Sidereal Time17:55:46
Azimuth320.337° NNW
Elevation-29.064°
Doppler factor1
Orbital elements
Apogee913.061 km
Perigee898.014 km
Semi-major axis7,283.675 km
Eccentricity0.0010329
Inclination69.9756°
RAAN9.0715°
Arg. of periapsis282.4944°
True anomaly77.61609°
Mean anomaly77.5005°
Eccentric anomaly77.55829°
Mean motion3.49154 °/min
BSTAR0.00023269
Period103.11 mins
No data available

GGSE 5 Visibility forecast

Observer location: 39.9160978°, -105.1181434

GGSE 5 is not visible in the next 10 days
Span
Click to sort rows by Start time (UTC) header in descending order
Start Az.
Max El. time (UTC)
Max El. Az.
Max El.
End time (UTC)
End Az.